Location: ?????
(32.7281°N, 34.9563°E)
Time: 03:25:58
(UTC+00:00)

CZ-4B R/B - Pass Details

Date: 10 March 2021
Orbit: 388 x 454 km, 97.6° (Epoch: 18 April)

Event Time Altitude Azimuth Distance (km) Brightness Sun altitude
Rises 16:39:06 0° 347° (NNW) 2,317 5.2 -12.3°
Reaches altitude 10° 16:41:51 10° 319° (NW) 1,467 4.7 -12.9°
Maximum altitude 16:43:24 13° 289° (WNW) 1,294 4.9 -13.2°
Drops below altitude 10° 16:44:58 10° 259° (W) 1,479 5.3 -13.5°
Sets 16:47:46 0° 231° (SW) 2,354 5.8 -14.1°
